Satellite: ISS
Catalog number: 25544
Epoch time:      08255.49905867
Element set:     229
Inclination:      051.6425 deg
RA of node:       293.6415 deg
Eccentricity:    0.0007002
Arg of perigee:   102.3921 deg
Mean anomaly:     037.1452 deg
Mean motion:   15.72027705 rev/day
Decay rate:      6.927e-05 rev/day^2
Epoch rev:           56211
Checksum:              286

Satellite: CO-58
Catalog number: 28895
Epoch time:      08254.66917600
Element set:    0118
Inclination:      098.0860 deg
RA of node:       146.6125 deg
Eccentricity:    0.0018462
Arg of perigee:   138.9041 deg
Mean anomaly:     221.3614 deg
Mean motion:   14.59695659 rev/day
Decay rate:       2.42e-06 rev/day^2
Epoch rev:           15295
Checksum:              330

Satellite: FALCON
Catalog number: 30776
Epoch time:      08254.66672033
Element set:    0401
Inclination:      035.4351 deg
RA of node:       355.0570 deg
Eccentricity:    0.0001747
Arg of perigee:   353.0035 deg
Mean anomaly:     007.0657 deg
Mean motion:   15.03048021 rev/day
Decay rate:       2.92e-06 rev/day^2
Epoch rev:           08301
Checksum:              247

Satellite: MAST
Catalog number: 31126
Epoch time:      08255.22665618
Element set:     417
Inclination:      098.0319 deg
RA of node:       316.1876 deg
Eccentricity:    0.0095810
Arg of perigee:   065.5929 deg
Mean anomaly:     295.5244 deg
Mean motion:   14.53444034 rev/day
Decay rate:        3.7e-07 rev/day^2
Epoch rev:            7451
Checksum:              302

Satellite: CAPE1
Catalog number: 31130
Epoch time:      08255.81498783
Element set:     401
Inclination:      098.0329 deg
RA of node:       315.5638 deg
Eccentricity:    0.0103992
Arg of perigee:   067.3158 deg
Mean anomaly:     293.8993 deg
Mean motion:   14.51990211 rev/day
Decay rate:        7.6e-07 rev/day^2
Epoch rev:            7429
Checksum:              319

Satellite: COMPASS
Catalog number: 32787
Epoch time:      08254.35701524
Element set:    0145
Inclination:      097.9818 deg
RA of node:       313.9731 deg
Eccentricity:    0.0015109
Arg of perigee:   217.7791 deg
Mean anomaly:     142.2362 deg
Mean motion:   14.81458591 rev/day
Decay rate:       3.61e-06 rev/day^2
Epoch rev:           02001
Checksum:              290

Satellite: AAUSAT2
Catalog number: 32788
Epoch time:      08255.83289736
Element set:     145
Inclination:      097.9812 deg
RA of node:       315.4612 deg
Eccentricity:    0.0014568
Arg of perigee:   213.9807 deg
Mean anomaly:     146.0447 deg
Mean motion:   14.81568837 rev/day
Decay rate:        6.9e-07 rev/day^2
Epoch rev:            2023
Checksum:              327

Satellite: DO-64
Catalog number: 32789
Epoch time:      08254.83065951
Element set:    0161
Inclination:      097.9836 deg
RA of node:       314.4943 deg
Eccentricity:    0.0015082
Arg of perigee:   215.5595 deg
Mean anomaly:     144.4606 deg
Mean motion:   14.81468245 rev/day
Decay rate:       2.99e-06 rev/day^2
Epoch rev:           02008
Checksum:              329

Satellite: CO-66
Catalog number: 32791
Epoch time:      08254.43747248
Element set:    0149
Inclination:      097.9845 deg
RA of node:       314.0720 deg
Eccentricity:    0.0015284
Arg of perigee:   215.7708 deg
Mean anomaly:     144.2482 deg
Mean motion:   14.81311952 rev/day
Decay rate:       1.51e-06 rev/day^2
Epoch rev:           01999
Checksum:              320

Satellite: RS-30
Catalog number: 32953
Epoch time:      08255.45368943
Element set:     105
Inclination:      082.4973 deg
RA of node:       069.9371 deg
Eccentricity:    0.0019919
Arg of perigee:   067.2197 deg
Mean anomaly:     293.0990 deg
Mean motion:   12.42997338 rev/day
Decay rate:        1.0e-07 rev/day^2
Epoch rev:            1376
Checksum:              331

/EX



_______________________________________________
Via the Keps mailing list courtesy of AMSAT-NA
http://amsat.org/mailman/listinfo/keps

--- ViaMAIL!/WC v1.60d
 * Origin: Chowdanet (401-724-4410) telnet://chowdanet.com  (1:323/120)